Wind_Speed
17 16 14 12 12 11 10 10 9 9 9 9 6 5 7 9 9 10 10 10 10 11 12 12 13 14 14 14 14 14 14 13 13 12 12 11 11 10 10 9 9 8 6 5
18 18 15 15 15 14 12 12 11 11 11 10 7 6 8 10 9 10 10 10 9 10 10 11 12 12 13 13 14 14 14 14 13 12 12 12 12 11 11 10 10 9 8 6
20 17 16 18 17 15 15 14 13 12 12 11 11 9 10 11 10 10 10 10 9 9 10 10 10 11 11 12 12 13 13 13 13 13 12 12 12 11 11 11 10 9 8 7
22 20 21 21 20 17 17 16 15 15 15 13 12 12 12 14 13 11 11 10 10 9 9 9 10 9 10 10 11 11 12 13 12 12 12 12 12 12 12 12 11 9 9 8
24 23 25 24 21 20 19 18 17 17 17 15 14 14 14 15 15 12 12 12 10 9 9 9 9 9 9 9 10 10 11 12 12 11 11 11 11 11 11 11 11 10 9 10
26 24 25 24 24 23 21 19 18 17 17 19 16 15 16 16 17 15 14 13 13 11 10 9 9 9 9 9 9 9 10 10 11 11 11 11 11 11 11 11 11 10 10 10
27 27 26 25 24 23 22 20 19 18 19 20 17 18 19 20 19 17 16 15 14 14 12 10 10 10 10 10 10 9 10 10 10 11 10 10 11 11 11 11 11 11 10 10
25 25 25 26 26 24 24 23 22 21 20 18 17 19 19 19 19 20 19 18 17 15 15 13 12 11 11 11 11 11 11 10 10 10 10 10 10 11 11 11 11 10 11 11
24 24 23 26 27 27 25 25 23 23 22 21 20 20 20 19 19 19 19 19 18 17 16 16 14 14 13 12 12 12 11 11 11 10 10 10 10 11 11 11 11 11 12 12
28 26 24 25 28 29 28 25 24 25 25 23 21 21 21 22 21 20 20 19 20 19 19 18 16 15 15 14 14 13 12 12 12 11 11 11 11 12 12 13 13 13 13 13
31 30 27 26 28 27 27 27 27 26 25 23 22 22 21 21 21 22 22 22 22 20 20 20 18 17 17 16 15 15 14 14 13 13 13 13 13 13 13 14 14 14 15 15
32 32 31 29 26 26 27 27 27 28 28 27 25 25 23 22 21 22 23 24 23 21 21 21 20 20 20 19 19 18 17 16 15 15 15 15 15 15 15 15 16 16 16 16
33 34 33 30 28 27 28 28 28 29 28 28 26 28 25 25 23 23 25 26 25 23 22 22 22 21 21 21 21 21 20 18 18 17 17 17 17 17 17 17 18 18 18 18
34 35 34 30 27 26 27 28 28 29 29 29 28 28 27 27 26 26 27 28 27 26 25 25 24 24 24 24 23 23 23 22 21 20 19 20 20 20 20 20 20 20 20 20
35 35 35 35 32 29 27 25 26 28 30 30 29 28 30 30 30 31 30 30 29 30 28 28 28 27 26 26 26 26 25 25 24 23 22 22 23 23 23 22 22 22 22 22
36 37 37 37 35 32 32 30 28 30 30 30 31 32 33 33 33 33 33 33 32 32 32 30 30 30 29 29 28 29 28 28 28 27 26 25 25 25 25 25 25 24 24 25
36 37 37 36 35 33 34 33 31 31 32 32 33 35 35 36 36 36 35 36 36 35 33 32 32 32 31 31 31 31 31 31 30 29 29 28 28 27 28 27 27 27 26 26
35 36 37 36 35 36 35 32 32 33 33 34 37 38 38 39 39 38 37 37 37 35 34 34 33 33 33 33 33 32 33 33 32 32 32 31 30 30 30 29 29 29 29 28
35 35 36 35 34 34 33 33 33 33 35 36 39 40 40 39 38 39 39 38 37 36 36 35 35 35 35 35 35 35 35 35 35 35 34 34 33 33 32 32 31 31 31 30
34 34 35 35 33 32 32 33 34 33 36 38 39 39 39 40 40 41 40 38 36 36 36 36 37 37 38 38 38 38 38 38 37 37 37 37 37 36 36 35 34 34 34 33
31 33 34 34 33 31 32 35 34 35 38 39 39 38 38 39 40 40 40 39 39 38 37 38 38 39 40 40 41 42 42 41 40 40 41 40 40 39 39 38 37 38 37 36
30 30 32 32 32 33 35 36 37 38 37 38 39 39 39 39 39 39 40 40 40 39 39 40 40 41 42 43 44 44 43 43 43 43 43 43 42 42 41 41 40 39 38 38
31 31 31 33 35 36 36 38 39 38 37 38 39 39 38 39 39 40 41 41 41 41 41 42 42 42 43 44 44 45 45 45 45 45 45 44 44 43 43 42 41 41 40 39
30 32 34 34 36 38 38 39 38 39 38 38 38 39 40 41 41 41 41 41 41 42 43 43 43 43 43 44 45 45 46 46 47 46 45 45 45 44 44 44 43 42 41 40
31 31 33 35 36 37 39 40 39 38 38 38 38 40 41 41 41 42 42 41 41 41 42 43 43 44 44 44 44 45 46 46 46 46 45 44 44 44 44 44 43 43 42 42
33 33 34 35 36 38 39 39 40 39 38 39 39 40 41 41 42 42 41 40 41 42 42 43 44 45 45 44 44 44 45 46 45 45 45 44 43 44 44 45 43 42 42 42
Wind_Direction
219 221 219 217 228 230 227 234 236 247 262 273 275 282 302 311 327 340 352 2 9 15 18 21 26 28 29 32 32 32 33 34 34 35 36 36 34 33 32 30 34 36 36 39
224 229 228 229 228 226 232 240 240 255 260 267 266 263 278 296 308 320 332 342 352 1 8 12 15 21 24 27 28 28 28 31 31 31 33 33 32 31 29 31 32 33 33 35
227 229 237 236 232 231 235 237 239 246 259 268 268 266 269 285 294 302 315 324 333 342 355 3 4 11 17 18 20 21 22 26 28 27 28 28 28 28 25 22 24 28 27 26
231 228 234 237 234 232 240 241 242 245 251 251 261 267 272 275 279 289 303 313 319 322 333 349 353 359 5 8 12 16 18 20 21 21 22 24 25 25 23 20 20 21 18 15
231 230 232 233 233 232 238 236 238 244 251 251 245 253 266 273 271 277 290 302 306 310 319 330 340 345 349 354 0 6 9 12 12 13 15 16 17 18 17 17 16 15 13 10
231 230 233 236 234 234 235 237 241 245 248 252 247 247 253 256 265 274 281 287 293 296 302 315 325 332 335 338 343 350 355 359 1 4 7 8 9 8 9 11 12 12 11 8
233 232 233 234 234 235 234 236 241 246 249 253 252 245 250 257 263 268 275 281 281 283 287 297 302 310 319 325 328 332 340 344 347 351 354 358 360 359 359 1 4 6 3 0
237 240 239 236 232 230 233 233 237 242 249 253 251 248 248 254 262 263 267 271 273 276 280 286 290 296 304 311 314 319 324 329 333 337 342 345 348 351 350 350 354 358 357 355
231 239 242 239 235 230 230 231 234 246 256 256 254 258 255 252 254 258 259 265 269 271 274 277 278 285 292 297 301 305 310 315 320 323 327 332 334 340 343 342 343 345 346 347
224 227 227 237 240 236 231 229 231 235 243 250 256 259 257 253 251 255 260 265 266 268 271 273 274 276 282 285 290 296 300 304 305 309 312 316 322 325 328 333 332 331 331 334
226 225 224 229 237 238 234 231 230 233 235 241 249 253 256 256 251 254 262 270 268 263 263 266 265 270 275 280 284 288 290 294 295 298 301 304 309 314 318 322 324 325 324 324
228 226 226 226 232 237 232 232 231 235 235 234 241 253 257 258 256 254 256 262 264 262 261 263 263 266 268 272 276 281 283 284 288 291 293 294 298 303 307 312 316 318 318 316
229 228 229 229 228 231 233 232 232 234 239 240 244 253 257 260 260 255 256 260 263 261 260 260 262 264 267 271 274 278 278 278 282 285 286 287 290 294 298 302 306 309 310 310
232 232 228 227 227 231 236 233 231 232 236 240 243 249 252 253 253 250 253 256 260 260 260 259 259 263 266 270 273 275 277 279 281 283 282 283 285 288 290 294 298 301 302 303
234 232 230 225 222 225 231 232 232 235 236 237 241 247 250 252 255 255 252 254 258 260 260 258 258 260 264 268 271 274 277 279 279 280 282 281 283 286 289 291 295 298 300 301
236 234 233 230 225 228 230 231 233 236 238 240 241 243 247 248 249 254 256 257 258 259 259 258 258 259 261 265 269 271 273 275 278 280 282 281 282 285 286 289 292 293 297 298
238 237 236 235 232 234 237 233 235 239 240 241 244 246 248 250 251 252 255 257 259 261 260 258 259 260 261 262 265 267 270 272 274 277 280 281 282 282 283 286 287 289 293 297
241 240 239 239 235 236 236 235 236 240 244 245 245 248 248 249 252 256 257 259 260 261 261 260 259 259 260 261 262 265 267 270 271 273 276 278 280 280 281 283 283 287 290 292
241 241 239 239 239 241 238 237 237 240 242 244 245 247 249 252 255 256 257 257 259 261 260 260 259 259 260 260 261 263 266 268 270 272 274 275 277 278 279 279 281 284 285 287
239 239 239 237 237 238 237 237 239 240 244 244 247 249 250 251 254 257 259 259 260 262 262 261 260 260 260 260 261 263 264 265 267 269 271 272 274 275 277 277 277 279 281 282
241 238 238 238 237 239 239 239 240 240 244 247 249 253 254 253 254 257 261 264 264 262 261 261 261 261 261 261 262 262 263 265 266 267 269 271 272 273 275 275 275 277 279 281
240 239 238 237 235 236 240 241 241 244 248 252 254 256 256 257 258 259 260 262 264 264 263 262 263 263 263 263 264 264 263 264 266 266 267 270 271 273 275 276 276 278 278 280
235 234 235 235 235 238 242 244 246 248 250 253 256 259 259 260 260 260 261 261 262 263 263 264 264 264 264 264 264 264 265 265 266 267 267 268 270 272 274 275 275 275 275 276
238 237 236 238 239 240 243 247 250 250 253 255 256 258 261 262 262 262 262 262 262 263 264 264 265 265 265 265 265 265 265 265 266 267 267 268 269 270 271 274 275 275 276 277
237 236 236 238 240 243 245 248 251 254 254 256 257 258 260 261 262 263 262 262 262 264 264 265 265 266 266 266 266 266 266 266 266 266 266 267 268 269 270 272 273 274 275 277
239 239 240 243 245 245 247 249 250 255 257 257 258 259 261 262 262 263 262 263 264 265 265 265 265 266 266 267 267 266 265 265 265 265 266 266 268 269 271 273 274 274 275 276
Height
5910 5913 5915 5918 5921 5924 5925 5927 5928 5929 5928 5928 5928 5927 5926 5924 5923 5921 5920 5919 5917 5916 5914 5913 5911 5909 5908 5906 5905 5903 5901 5899 5898 5896 5895 5893 5892 5891 5889 5888 5887 5886 5885 5885
5907 5910 5913 5916 5918 5921 5923 5925 5926 5928 5927 5926 5926 5927 5926 5924 5922 5922 5920 5919 5918 5916 5915 5914 5912 5911 5909 5908 5906 5904 5903 5901 5899 5898 5896 5895 5893 5892 5891 5889 5888 5887 5886 5885
5903 5909 5911 5913 5916 5918 5921 5922 5924 5925 5925 5925 5925 5925 5925 5924 5922 5921 5920 5919 5918 5917 5916 5914 5913 5912 5911 5909 5907 5906 5904 5902 5901 5899 5898 5896 5894 5893 5892 5890 5888 5887 5886 5886
5899 5905 5908 5909 5912 5915 5917 5920 5921 5923 5923 5923 5924 5923 5922 5922 5921 5920 5919 5918 5918 5916 5915 5914 5913 5912 5911 5910 5908 5907 5905 5903 5902 5900 5899 5897 5896 5894 5892 5890 5889 5888 5887 5886
5895 5900 5902 5905 5908 5911 5913 5916 5917 5919 5919 5919 5920 5921 5921 5919 5917 5917 5917 5917 5917 5916 5915 5914 5913 5912 5911 5910 5909 5907 5906 5904 5903 5901 5900 5898 5896 5895 5893 5891 5889 5888 5887 5886
5890 5895 5897 5900 5904 5906 5909 5912 5913 5914 5916 5916 5917 5918 5918 5917 5915 5915 5915 5915 5915 5914 5914 5913 5912 5911 5910 5909 5909 5908 5906 5905 5903 5902 5900 5898 5897 5895 5894 5892 5890 5888 5887 5886
5884 5888 5891 5895 5898 5902 5904 5907 5910 5911 5912 5913 5914 5914 5914 5914 5914 5914 5914 5913 5913 5912 5912 5911 5911 5910 5909 5908 5908 5907 5906 5905 5903 5902 5900 5899 5897 5896 5894 5892 5890 5889 5887 5886
5880 5883 5887 5890 5892 5896 5899 5903 5905 5907 5909 5910 5910 5910 5909 5909 5910 5910 5911 5910 5910 5910 5909 5909 5909 5908 5908 5907 5906 5906 5905 5904 5903 5901 5900 5898 5897 5896 5894 5892 5891 5889 5888 5886
5875 5879 5883 5884 5887 5890 5893 5897 5901 5904 5903 5904 5905 5905 5904 5904 5905 5906 5907 5907 5907 5906 5906 5905 5905 5906 5905 5905 5904 5904 5903 5902 5901 5900 5899 5898 5896 5895 5894 5892 5890 5889 5887 5886
5868 5872 5876 5879 5881 5883 5887 5891 5895 5897 5899 5899 5901 5900 5899 5899 5900 5901 5902 5903 5903 5903 5902 5902 5901 5902 5902 5902 5902 5901 5901 5900 5900 5899 5898 5897 5895 5894 5893 5891 5889 5888 5886 5885
5861 5864 5869 5872 5874 5877 5881 5884 5887 5890 5892 5895 5897 5896 5895 5894 5894 5896 5898 5898 5898 5899 5899 5898 5897 5898 5898 5898 5899 5899 5898 5898 5897 5896 5896 5895 5893 5892 5891 5889 5888 5886 5885 5883
5851 5855 5858 5863 5868 5871 5874 5877 5881 5884 5885 5888 5890 5891 5889 5889 5890 5891 5891 5892 5892 5894 5894 5894 5895 5895 5895 5895 5895 5895 5895 5894 5894 5893 5893 5892 5891 5890 5888 5887 5885 5884 5882 5881
5842 5846 5850 5855 5862 5865 5866 5869 5874 5877 5879 5881 5884 5885 5884 5884 5884 5883 5884 5886 5887 5888 5889 5889 5890 5889 5890 5890 5891 5891 5890 5890 5890 5889 5889 5888 5888 5886 5885 5884 5883 5881 5879 5878
5833 5837 5842 5848 5853 5857 5859 5862 5865 5869 5872 5874 5876 5877 5877 5876 5877 5877 5878 5880 5881 5882 5883 5884 5885 5885 5886 5886 5886 5886 5885 5885 5885 5885 5885 5884 5883 5882 5881 5880 5879 5877 5875 5874
5824 5828 5833 5837 5843 5848 5850 5854 5858 5861 5863 5866 5868 5869 5868 5869 5869 5869 5871 5872 5874 5875 5876 5877 5878 5879 5879 5880 5880 5880 5880 5880 5880 5879 5879 5879 5879 5877 5876 5875 5874 5872 5870 5869
5816 5820 5824 5828 5834 5838 5842 5846 5850 5853 5856 5857 5859 5860 5858 5860 5861 5862 5864 5865 5865 5867 5869 5870 5871 5872 5873 5873 5874 5874 5874 5874 5874 5874 5873 5873 5872 5872 5870 5870 5869 5867 5865 5864
5807 5811 5816 5820 5825 5829 5832 5837 5841 5844 5846 5848 5850 5850 5849 5851 5852 5853 5855 5857 5858 5859 5860 5861 5863 5864 5865 5866 5867 5867 5867 5867 5867 5867 5867 5866 5866 5865 5865 5864 5862 5861 5859 5858
5800 5803 5807 5812 5816 5819 5825 5829 5832 5835 5837 5839 5840 5839 5841 5842 5843 5844 5845 5847 5849 5851 5852 5852 5854 5856 5857 5858 5858 5859 5859 5859 5860 5860 5859 5859 5859 5858 5857 5856 5855 5854 5852 5851
5791 5795 5799 5803 5807 5811 5816 5819 5822 5825 5827 5828 5829 5830 5832 5832 5834 5835 5834 5837 5839 5842 5843 5844 5845 5846 5848 5849 5849 5850 5850 5850 5851 5851 5851 5851 5850 5849 5848 5848 5847 5846 5845 5844
5783 5786 5790 5794 5799 5803 5807 5809 5812 5816 5816 5816 5818 5821 5823 5824 5825 5825 5826 5827 5830 5832 5833 5834 5835 5836 5838 5839 5839 5840 5840 5840 5840 5841 5841 5841 5841 5840 5839 5839 5838 5837 5836 5835
5775 5778 5781 5785 5790 5793 5796 5798 5803 5806 5805 5806 5808 5810 5813 5814 5815 5816 5817 5818 5820 5821 5823 5824 5825 5826 5827 5828 5829 5829 5829 5829 5830 5830 5831 5830 5830 5830 5829 5828 5827 5827 5826 5825
5768 5771 5774 5778 5782 5785 5785 5788 5791 5792 5795 5796 5798 5799 5801 5803 5804 5806 5807 5808 5809 5810 5811 5812 5813 5814 5815 5816 5817 5818 5818 5818 5819 5819 5819 5819 5819 5818 5818 5817 5816 5815 5815 5815
5760 5764 5766 5769 5773 5774 5776 5778 5780 5782 5785 5787 5789 5789 5790 5792 5794 5795 5796 5797 5798 5799 5800 5801 5802 5803 5804 5804 5805 5806 5806 5807 5807 5807 5807 5807 5807 5807 5806 5805 5805 5804 5803 5803
5752 5754 5757 5760 5762 5764 5767 5769 5771 5773 5775 5778 5779 5780 5781 5782 5783 5784 5785 5786 5787 5787 5788 5789 5789 5790 5791 5792 5792 5793 5793 5794 5794 5794 5794 5794 5794 5795 5794 5793 5793 5792 5791 5791
5742 5745 5747 5750 5753 5756 5758 5760 5762 5763 5766 5767 5769 5769 5770 5772 5772 5773 5773 5775 5775 5776 5776 5777 5777 5778 5779 5779 5779 5780 5780 5780 5781 5781 5781 5781 5782 5782 5781 5781 5781 5780 5780 5780
5735 5737 5739 5741 5743 5746 5748 5750 5752 5754 5755 5757 5758 5759 5760 5761 5761 5761 5761 5762 5763 5764 5764 5764 5764 5765 5765 5766 5766 5766 5767 5767 5767 5768 5768 5768 5769 5769 5769 5769 5769 5768 5768 5768